Flag for U.S.A. Weather past 2 weeks in Jackson, Wyoming, U.S.A.

Now
39 °F

Clear.


Feels Like: 34 °F
Forecast: 30 / 46 °F
Wind: 7 mph from Northeast

Location: Jackson Hole

Current Time: Oct 20, 2014 at 9:50:24 PM

Latest Report: Oct 20, 2014 at 9:15 PM


Visibility: 10 mi

Pressure: 30.04 "Hg

Humidity: 70%

Dew point: 30 °F

Location of JacksonLocation

Historic Weather in Jackson — Graph

°F

Jackson temperature yesterday

Maximum temperature yesterday: 66 °F (at 4:51 PM)
Minimum temperature yesterday: 27 °F (at 6:35 AM)
Average temperature yesterday: 38 °F

Past Weeks' High & Low Weather Summary

 TemperatureHumidityPressure
High72 °F (Oct 9, 4:51 PM)100% (Oct 8, 6:53 AM)30.30 "Hg (Oct 8, 6:53 AM)
Low21 °F (Oct 13, 3:55 AM)13% (Oct 9, 4:51 PM)29.86 "Hg (Oct 11, 10:55 PM)
Average41 °F70%30.15 "Hg
* Reported Oct 5 7:51 PM — Oct 20 7:53 PM, Jackson, Weather by CustomWeather, © 2014

Note: Actual official high and low records may vary slightly from our data, if they occured in-between our weather recording intervals... More about our weather records

Advertising

Jackson weather history for previous 24 hours

 ConditionsComfort  
Time TempWeatherWind HumidityBarometerVisibility
7:53 PM
Oct 20
48 °FClear.No wind46%30.04 "Hg10 mi
6:52 PM57 °FSunny.No wind36%30.03 "Hg10 mi
5:59 PM61 °FScattered clouds.5 mph31%30.04 "Hg10 mi
4:50 PM66 °FScattered clouds.8 mph26%30.05 "Hg10 mi
3:51 PM68 °FSunny.7 mph23%30.06 "Hg10 mi
2:51 PM66 °FSunny.7 mph26%30.08 "Hg10 mi
1:52 PM61 °FSunny.No wind29%30.10 "Hg10 mi
12:52 PM55 °FSunny.No wind33%30.14 "Hg10 mi
11:51 AM48 °FSunny.3 mph40%30.17 "Hg10 mi
10:51 AM43 °FSunny.No wind53%30.20 "Hg10 mi
9:51 AM37 °FSunny.No wind60%30.21 "Hg10 mi
8:52 AM30 °FSunny.5 mph86%30.21 "Hg10 mi
7:52 AM27 °FClear.7 mph86%30.20 "Hg10 mi
6:52 AM25 °FClear.7 mph93%30.20 "Hg10 mi
6:35 AM27 °FClear.6 mph86%30.19 "Hg10 mi
6:15 AM25 °FClear.5 mph93%30.19 "Hg10 mi
5:55 AM27 °FClear.8 mph86%30.19 "Hg10 mi
5:35 AM25 °FClear.8 mph93%30.19 "Hg10 mi
5:15 AM25 °FClear.7 mph86%30.19 "Hg10 mi
4:55 AM27 °FClear.5 mph86%30.19 "Hg10 mi
4:35 AM30 °FClear.5 mph80%30.19 "Hg10 mi
4:15 AM27 °FClear.6 mph93%30.19 "Hg10 mi
3:55 AM28 °FClear.6 mph86%30.19 "Hg10 mi
3:35 AM28 °FClear.6 mph86%30.19 "Hg10 mi
2:55 AM30 °FClear.7 mph80%30.19 "Hg10 mi
2:35 AM28 °FClear.7 mph86%30.19 "Hg10 mi
2:15 AM28 °FClear.3 mph86%30.19 "Hg10 mi
1:55 AM30 °FClear.5 mph80%30.19 "Hg10 mi
1:35 AM34 °FClear.6 mph70%30.18 "Hg10 mi
1:15 AM34 °FClear.5 mph70%30.19 "Hg10 mi
12:55 AM30 °FClear.5 mph80%30.19 "Hg10 mi
12:35 AM34 °FClear.5 mph70%30.18 "Hg10 mi
12:15 AM34 °FClear.7 mph70%30.18 "Hg10 mi
11:55 PM
Oct 19
34 °FClear.6 mph75%30.18 "Hg10 mi
11:35 PM34 °FClear.6 mph75%30.18 "Hg10 mi
9:15 PM39 °FClear.5 mph61%30.16 "Hg10 mi
Weather by CustomWeather, © 2014

See weather overviewHow to use our weather pages